[[{"header":{"parameterUnit":"m.s-1","parameterCategory":2,"la1":30.2991,"la2":30.254,"lo1":-89.0895,"lo2":-89.0444,"dy":0.0017,"dx":0.0017,"nx":28,"ny":28,"refTime":"2025-02-04T03:00:00:Z","depth":"0","parameterNumber":2,"parameterNumberName":"U-component_of_CURRENTS"},"data":[0,0,0,0,0,0,0,0,0,0,0,0,0,0,0,0,0,0,0,0,0,0,0,0,0,0,0,0,0,0,0,0,0,0,0,0,0,0,0,0,0,0,0,0,0,0,0,0,0,0,0,0,0,0,0,0,0,0,-0.244,-0.244,0,-0.2378,-0.2377,-0.2375,-0.2317,-0.2317,-0.2317,-0.2317,-0.2186,-0.2183,-0.218,0,0,0,0,0,0,0,0,0,0,0,0,0,-0.2423,-0.2424,-0.244,-0.244,-0.244,-0.2378,-0.2377,-0.2375,-0.2317,-0.2317,-0.2317,-0.2317,-0.2187,-0.2183,-0.2179,0,0,0,0,0,0,0,0,0,0,0,0,0,-0.2397,-0.2424,-0.2441,-0.2408,-0.2405,-0.2378,-0.2376,-0.2375,-0.2317,-0.2317,-0.2317,-0.2316,-0.2189,-0.2184,-0.2179,-0.2153,0,0,-0.2164,-0.2162,0,0,0,0,0,0,0,0,-0.2399,-0.2397,-0.2413,-0.241,-0.2407,-0.236,-0.2323,-0.2299,-0.2317,-0.2344,-0.2317,-0.2316,-0.2242,-0.2233,-0.2214,-0.2147,-0.2141,-0.2163,-0.216,-0.2158,-0.2157,0,0,0,0,0,0,0,-0.2401,-0.2399,-0.2409,-0.2413,-0.2409,-0.2367,-0.2364,-0.2318,-0.2289,-0.2342,-0.2339,-0.2342,-0.2239,-0.2219,-0.221,-0.214,-0.2163,-0.2159,-0.2156,-0.2154,-0.203,-0.2029,0,0,0,0,0,0,-0.2426,-0.2402,-0.2412,-0.2408,-0.2409,-0.2369,-0.2364,-0.2371,-0.2291,-0.2281,-0.2342,-0.2339,-0.2228,-0.2216,-0.2206,-0.217,-0.2158,-0.2153,-0.2151,-0.203,-0.2029,-0.2029,0,0,0,0,0,0,-0.2426,-0.2427,-0.2414,-0.2408,-0.2404,-0.2371,-0.2377,-0.237,-0.2353,-0.2293,-0.2281,-0.2335,-0.2227,-0.2213,-0.2167,-0.2165,-0.2151,-0.2147,-0.203,-0.203,-0.2029,-0.2099,0,0,0,0,0,0,-0.2425,-0.2428,-0.2432,-0.241,-0.2406,-0.24,-0.2378,-0.2369,-0.2358,-0.2354,-0.2283,-0.227,-0.2226,-0.2174,-0.2162,-0.2158,-0.2143,-0.2031,-0.203,-0.2029,-0.2097,-0.2101,-0.2105,0,0,0,0,0,-0.2425,-0.243,-0.2432,-0.2433,-0.2415,-0.24,-0.2393,-0.2364,-0.2358,-0.2348,-0.2304,-0.2273,-0.2161,-0.217,-0.2155,-0.215,-0.2031,-0.203,-0.2029,-0.2096,-0.2101,-0.2105,0,0,0,0,0,0,-0.2406,-0.2425,-0.2426,-0.2432,-0.2422,-0.2393,-0.2382,-0.2371,-0.2329,-0.2326,-0.2269,-0.2253,-0.2208,-0.217,-0.2182,-0.2111,-0.2091,-0.2087,-0.2146,-0.215,-0.2153,-0.2166,-0.2139,0,0,0,0,0,-0.2413,-0.2429,-0.243,-0.2431,-0.2433,-0.2412,-0.2402,-0.239,-0.2358,-0.234,-0.2294,-0.2242,-0.2193,-0.2167,-0.2115,-0.2081,-0.2065,-0.2066,-0.207,-0.2073,-0.2072,-0.2048,-0.205,-0.2027,-0.2027,-0.2027,0,0,-0.2403,-0.2417,-0.2422,-0.243,-0.2419,-0.2421,-0.2403,-0.2396,-0.2388,-0.2331,-0.2296,-0.225,-0.2185,-0.2142,-0.212,-0.2113,-0.2077,-0.2072,-0.2076,-0.2073,-0.2048,-0.205,-0.2052,-0.2026,-0.2026,-0.2026,0,0,-0.2398,-0.241,-0.2425,-0.2429,-0.2435,-0.2424,-0.2431,-0.2412,-0.2393,-0.2364,-0.2318,-0.2277,-0.2205,-0.2158,-0.2126,-0.2118,-0.2095,-0.2102,-0.2133,-0.211,-0.2112,-0.2114,-0.213,-0.2132,-0.2108,-0.2108,-0.2108,0,-0.2382,-0.241,-0.242,-0.2438,-0.2441,-0.2434,-0.2442,-0.2423,-0.2388,-0.2374,-0.236,-0.2263,-0.221,-0.216,-0.2155,-0.2126,-0.2125,-0.2126,-0.2117,-0.2118,-0.2119,-0.2134,-0.2136,-0.2111,-0.2111,-0.211,-0.211,0,-0.2392,-0.2416,-0.2423,-0.2451,-0.2451,-0.2456,-0.2452,-0.2442,-0.2427,-0.2406,-0.2361,-0.2295,-0.2236,-0.2217,-0.218,-0.2154,-0.2158,-0.2126,-0.2114,-0.2126,-0.2141,-0.2142,-0.2116,-0.2115,-0.2114,-0.2113,0,0,-0.2342,-0.2419,-0.2419,-0.2441,-0.2464,-0.246,-0.2463,-0.2453,-0.2452,-0.2415,-0.2396,-0.232,-0.2293,-0.2254,-0.2208,-0.2191,-0.22,-0.2168,-0.2165,-0.2199,-0.2186,-0.2213,-0.2217,-0.2173,-0.2172,-0.2172,-0.2207,0,-0.2339,-0.2393,-0.2424,-0.2446,-0.2468,-0.2478,-0.2479,-0.2472,-0.2457,-0.2435,-0.2383,-0.2342,-0.2305,-0.228,-0.2256,-0.2203,-0.22,-0.2196,-0.2155,-0.2154,-0.2189,-0.2217,-0.2019,-0.2035,-0.2208,-0.2208,-0.2208,0,-0.2328,-0.2371,-0.2414,-0.2464,-0.2472,-0.2478,-0.2486,-0.2485,-0.2469,-0.2458,-0.2425,-0.2388,-0.2344,-0.2311,-0.2258,-0.2261,-0.2229,-0.2202,-0.2202,-0.2199,-0.2182,-0.2041,-0.2029,-0.1965,-0.2208,-0.2208,-0.2208,0,-0.2286,-0.235,-0.2388,-0.2405,-0.2462,-0.2469,-0.2481,-0.2485,-0.2482,-0.2466,-0.2466,-0.2419,-0.2389,-0.2343,-0.2295,-0.2274,-0.2257,-0.2213,-0.2217,-0.2221,-0.2028,-0.2015,-0.1952,-0.2182,-0.2182,-0.2182,-0.2182,0,-0.2269,-0.229,-0.2373,-0.2392,-0.242,-0.2452,-0.2463,-0.2477,-0.248,-0.2474,-0.2464,-0.2454,-0.2394,-0.2377,-0.2324,-0.2294,-0.228,-0.2235,-0.2227,-0.2051,-0.2041,-0.1956,-0.1975,-0.2183,-0.2183,-0.2182,-0.2182,0,-0.2217,-0.2277,-0.2323,-0.2393,-0.2408,-0.2421,-0.2457,-0.2459,-0.248,-0.2473,-0.2469,-0.2477,-0.2469,-0.2438,-0.238,-0.2338,-0.2246,-0.2289,-0.2119,-0.2091,-0.2037,-0.2068,-0.2066,-0.2013,-0.2294,-0.2295,-0.2296,0,-0.2197,-0.222,-0.2315,-0.2334,-0.2364,-0.2391,-0.2405,-0.2444,-0.2447,-0.2481,-0.247,-0.2492,-0.2475,-0.2453,-0.237,-0.2319,-0.2275,-0.2147,-0.2061,-0.2026,-0.2053,-0.2082,-0.2038,-0.1837,-0.1834,-0.1832,-0.183,0,-0.2146,-0.219,-0.2238,-0.2283,-0.2308,-0.2336,-0.2358,-0.2364,-0.2399,-0.2405,-0.2413,-0.2411,-0.241,-0.227,-0.2253,-0.2191,-0.2062,-0.21,-0.2055,-0.1704,-0.173,-0.1675,-0.1871,-0.1807,-0.1809,-0.1811,-0.1812,-0.1813,-0.2094,-0.2117,-0.2174,-0.2202,-0.2238,-0.2238,-0.2199,-0.2227,-0.2214,-0.2148,-0.226,-0.2178,-0.2105,-0.2039,-0.2,-0.1834,-0.1958,-0.1715,-0.1765,-0.1806,-0.1723,-0.193,-0.1871,-0.1874,-0.1876,-0.1878,-0.188,0,-0.1997,-0.2031,-0.2069,-0.2088,-0.2075,-0.2125,-0.2121,-0.2043,-0.1973,-0.1948,-0.1903,-0.1812,-0.167,-0.1633,-0.1511,-0.1453,-0.1392,-0.144,-0.1346,-0.1322,-0.1445,-0.1388,-0.1229,-0.1229,-0.1229,-0.1229,-0.1229,-0.1229,-0.1942,-0.1946,-0.1972,-0.1908,-0.1905,-0.1817,-0.1781,-0.1691,-0.1631,-0.1483,-0.1413,-0.1412,-0.1419,-0.1416,-0.126,-0.1195,-0.1162,-0.1155,-0.127,-0.1251,-0.1276,-0.1301,-0.1246,-0.106,-0.106,-0.0983,-0.0982,-0.0982]},{"header":{"parameterUnit":"m.s-1","parameterCategory":2,"la1":30.2991,"la2":30.254,"lo1":-89.0895,"lo2":-89.0444,"dy":0.0017,"dx":0.0017,"nx":28,"ny":28,"refTime":"2025-02-04T03:00:00:Z","depth":"0","parameterNumber":3,"parameterNumberName":"V-component_of_CURRENTS"},"data":[0,0,0,0,0,0,0,0,0,0,0,0,0,0,0,0,0,0,0,0,0,0,0,0,0,0,0,0,0,0,0,0,0,0,0,0,0,0,0,0,0,0,0,0,0,0,0,0,0,0,0,0,0,0,0,0,0,0,0.041,0.0411,0,0.0511,0.0512,0.0513,0.0507,0.0506,0.0505,0.0503,0.0581,0.0584,0.0587,0,0,0,0,0,0,0,0,0,0,0,0,0,0.0276,0.0278,0.041,0.0412,0.0413,0.0511,0.0512,0.0513,0.0507,0.0506,0.0504,0.0503,0.058,0.0584,0.0588,0,0,0,0,0,0,0,0,0,0,0,0,0,0.0349,0.0279,0.041,0.0423,0.0426,0.0511,0.0512,0.0514,0.0508,0.0506,0.0504,0.0502,0.0579,0.0583,0.0588,0.0657,0,0,0.0603,0.0605,0,0,0,0,0,0,0,0,0.0345,0.0354,0.042,0.0422,0.0425,0.0496,0.0494,0.0561,0.0508,0.0475,0.0503,0.0501,0.0553,0.056,0.0581,0.0661,0.0664,0.0604,0.0607,0.0609,0.061,0,0,0,0,0,0,0,0.034,0.035,0.0448,0.0422,0.0425,0.0446,0.0454,0.0507,0.0522,0.0477,0.0478,0.0493,0.0554,0.0576,0.0583,0.0665,0.0603,0.0608,0.0611,0.0613,0.0795,0.0797,0,0,0,0,0,0,0.0331,0.0345,0.0445,0.0451,0.0382,0.045,0.0458,0.0474,0.0522,0.0528,0.0494,0.0492,0.0569,0.0577,0.0585,0.0654,0.0609,0.0613,0.0616,0.0793,0.0795,0.0797,0,0,0,0,0,0,0.0327,0.0339,0.0441,0.0402,0.0416,0.0454,0.0472,0.0477,0.0493,0.0535,0.054,0.0504,0.0568,0.0578,0.0637,0.0657,0.0615,0.062,0.0791,0.0794,0.0796,0.0802,0,0,0,0,0,0,0.0323,0.0337,0.0341,0.0401,0.0418,0.0485,0.0474,0.048,0.0507,0.0505,0.0546,0.0551,0.0567,0.063,0.0642,0.0663,0.0624,0.0788,0.0792,0.0796,0.0799,0.0804,0.0809,0,0,0,0,0,0.0318,0.0329,0.034,0.0352,0.0424,0.0486,0.0497,0.0516,0.0509,0.0522,0.0555,0.055,0.066,0.0636,0.0649,0.0672,0.0787,0.0791,0.0795,0.0797,0.0803,0.0809,0,0,0,0,0,0,0.0267,0.0332,0.0344,0.0372,0.0424,0.0485,0.0499,0.052,0.0559,0.0552,0.0583,0.0592,0.0645,0.067,0.0642,0.0738,0.072,0.0728,0.0717,0.0723,0.0728,0.0699,0.0628,0,0,0,0,0,0.0262,0.0286,0.0354,0.0375,0.0399,0.0452,0.0478,0.0498,0.0544,0.0557,0.0594,0.0635,0.0679,0.0707,0.0746,0.0812,0.0806,0.0835,0.084,0.0844,0.0832,0.0857,0.0862,0.0812,0.0811,0.0811,0,0,0.0247,0.0286,0.0299,0.0366,0.0403,0.0449,0.0461,0.0503,0.0539,0.0563,0.0618,0.0652,0.0699,0.0759,0.0786,0.0781,0.0856,0.0849,0.0852,0.0837,0.0862,0.0866,0.087,0.0814,0.0814,0.0813,0,0,0.0237,0.0267,0.0288,0.0335,0.0398,0.044,0.0453,0.0524,0.0548,0.0619,0.0636,0.0684,0.0766,0.0799,0.0827,0.0891,0.0875,0.0906,0.0914,0.094,0.0943,0.0946,0.0934,0.0936,0.0915,0.0915,0.0915,0,0.021,0.0254,0.0303,0.0342,0.0376,0.0436,0.047,0.052,0.06,0.0624,0.0632,0.0742,0.0783,0.0848,0.0868,0.0899,0.0895,0.0884,0.0942,0.0945,0.0948,0.0936,0.0937,0.0916,0.0916,0.0915,0.0915,0,0.0226,0.0262,0.028,0.0348,0.0392,0.0432,0.051,0.0553,0.0594,0.0642,0.0711,0.0776,0.0828,0.0864,0.0889,0.0937,0.092,0.0936,0.0916,0.0952,0.0938,0.094,0.0917,0.0916,0.0916,0.0916,0,0,0.0152,0.0265,0.0269,0.0295,0.0396,0.0426,0.0498,0.0571,0.0584,0.0683,0.0706,0.0819,0.0834,0.0867,0.0907,0.0947,0.097,0.095,0.0951,0.0918,0.0994,0.0924,0.0918,0.0992,0.0993,0.0993,0.0971,0,0.0141,0.0201,0.027,0.0319,0.0353,0.0432,0.048,0.0551,0.0608,0.0647,0.0736,0.077,0.0843,0.0846,0.0909,0.0943,0.0977,0.0972,0.0982,0.0981,0.0898,0.0919,0.0957,0.0935,0.0973,0.0973,0.0973,0,0.0129,0.017,0.0218,0.029,0.0307,0.0341,0.0396,0.0452,0.0536,0.0573,0.0646,0.0694,0.0776,0.0815,0.0919,0.0909,0.0949,0.0987,0.0987,0.0916,0.0914,0.0911,0.0937,0.1076,0.0975,0.0975,0.0975,0,0.004,0.0127,0.0155,0.0185,0.0281,0.0295,0.0337,0.0416,0.0434,0.0506,0.0499,0.0626,0.0637,0.0748,0.0838,0.0873,0.0916,0.0974,0.0951,0.0945,0.0975,0.097,0.1117,0.1033,0.1033,0.1033,0.1033,0,0.0005,0.0021,0.0104,0.0116,0.0115,0.0206,0.0202,0.0261,0.0309,0.0295,0.0433,0.042,0.0617,0.0671,0.0791,0.0853,0.0881,0.0938,0.0938,0.0977,0.0972,0.109,0.1146,0.1032,0.1032,0.1032,0.1032,0,-0.0078,-0.0017,0.0005,0.0071,0.0078,0.0072,0.0107,0.0093,0.0154,0.013,0.0139,0.025,0.0311,0.048,0.0617,0.0743,0.0901,0.0847,0.0854,0.0855,0.0979,0.1032,0.1105,0.1178,0.084,0.0838,0.0836,0,-0.0103,-0.0099,-0.006,-0.0078,-0.0053,-0.0053,-0.0069,0.0003,-0.0017,0.0007,-0.0031,0.0022,0.004,0.0222,0.046,0.064,0.0783,0.0773,0.0865,0.0976,0.1038,0.1081,0.1144,0.0912,0.0911,0.0911,0.091,0,-0.016,-0.0153,-0.0142,-0.0187,-0.0215,-0.0237,-0.0254,-0.0292,-0.0241,-0.0265,-0.0308,-0.0295,-0.0117,0.0105,0.035,0.0493,0.0874,0.076,0.0909,0.112,0.1147,0.122,0.0909,0.0904,0.0905,0.0905,0.0906,0.0906,-0.0217,-0.0239,-0.0247,-0.0296,-0.0342,-0.0419,-0.0451,-0.0485,-0.0536,-0.055,-0.0528,-0.0454,-0.0102,0.0251,0.0398,0.0788,0.0785,0.0955,0.101,0.1044,0.1122,0.0754,0.0723,0.0723,0.0722,0.0722,0.0722,0,-0.0273,-0.0304,-0.0359,-0.0418,-0.0502,-0.0497,-0.0573,-0.0602,-0.0683,-0.0651,-0.066,-0.0294,0.0021,0.0399,0.0901,0.1088,0.1191,0.1183,0.1329,0.1384,0.1103,0.1117,0.113,0.113,0.1129,0.1129,0.1129,0.1129,-0.0307,-0.0369,-0.04,-0.0547,-0.0603,-0.0695,-0.074,-0.0777,-0.0741,-0.0634,-0.0416,-0.0225,0.0315,0.0944,0.1379,0.1428,0.1621,0.156,0.1645,0.1536,0.1523,0.151,0.1542,0.1643,0.1643,0.1963,0.1966,0.1969]}],[{"header":{"parameterUnit":"m.s-1","parameterCategory":2,"la1":30.2991,"la2":30.254,"lo1":-89.0895,"lo2":-89.0444,"dy":0.0017,"dx":0.0017,"nx":28,"ny":28,"refTime":"2025-02-04T03:00:00:Z","depth":"2","parameterNumber":2,"parameterNumberName":"U-component_of_CURRENTS"},"data":[0,0,0,0,0,0,0,0,0,0,0,0,0,0,0,0,0,0,0,0,0,0,0,0,0,0,0,0,0,0,0,0,0,0,0,0,0,0,0,0,0,0,0,0,0,0,0,0,0,0,0,0,0,0,0,0,0,0,-0.1664,-0.1664,0,-0.1668,-0.1668,-0.1668,-0.1681,-0.1681,-0.1681,-0.1682,-0.1657,-0.1656,-0.1655,0,0,0,0,0,0,0,0,0,0,0,0,0,-0.167,-0.167,-0.1664,-0.1664,-0.1664,-0.1668,-0.1668,-0.1668,-0.1681,-0.1681,-0.1681,-0.1682,-0.1657,-0.1656,-0.1655,0,0,0,0,0,0,0,0,0,0,0,0,0,-0.167,-0.167,-0.1664,-0.1671,-0.1672,-0.1668,-0.1668,-0.1668,-0.1681,-0.1681,-0.1682,-0.1682,-0.1657,-0.1656,-0.1654,-0.1636,0,0,-0.165,-0.1649,0,0,0,0,0,0,0,0,-0.167,-0.167,-0.167,-0.1671,-0.1671,-0.1674,-0.1661,-0.1656,-0.168,-0.1677,-0.1682,-0.1682,-0.166,-0.1658,-0.1658,-0.1635,-0.1634,-0.165,-0.1649,-0.1648,-0.1648,0,0,0,0,0,0,0,-0.167,-0.1669,-0.1665,-0.167,-0.1671,-0.1675,-0.1675,-0.166,-0.1665,-0.1677,-0.1678,-0.1679,-0.166,-0.1659,-0.1657,-0.1633,-0.165,-0.1649,-0.1648,-0.1647,-0.163,-0.163,0,0,0,0,0,0,-0.1669,-0.1669,-0.1665,-0.1665,-0.1672,-0.1675,-0.1675,-0.1673,-0.1666,-0.1665,-0.1679,-0.168,-0.1661,-0.1659,-0.1656,-0.167,-0.1648,-0.1647,-0.1646,-0.1629,-0.163,-0.163,0,0,0,0,0,0,-0.1669,-0.1669,-0.1665,-0.1668,-0.1668,-0.1674,-0.1671,-0.1673,-0.1678,-0.1667,-0.1666,-0.1684,-0.1662,-0.1658,-0.1654,-0.1668,-0.1646,-0.1645,-0.1629,-0.1629,-0.163,-0.1674,0,0,0,0,0,0,-0.1669,-0.1669,-0.1668,-0.1668,-0.1668,-0.1669,-0.1671,-0.1672,-0.1678,-0.1679,-0.1671,-0.1669,-0.1662,-0.1657,-0.1653,-0.1665,-0.1644,-0.1628,-0.1629,-0.163,-0.1672,-0.1676,-0.1679,0,0,0,0,0,-0.167,-0.1664,-0.1667,-0.1667,-0.1666,-0.1669,-0.167,-0.1676,-0.1677,-0.1682,-0.1679,-0.1669,-0.1659,-0.1656,-0.1651,-0.1664,-0.1628,-0.1629,-0.163,-0.167,-0.1675,-0.1679,0,0,0,0,0,0,-0.1662,-0.1664,-0.1669,-0.1663,-0.167,-0.1672,-0.1674,-0.1677,-0.1679,-0.168,-0.167,-0.1668,-0.1671,-0.1658,-0.1654,-0.1661,-0.1643,-0.1643,-0.1675,-0.168,-0.1683,-0.1695,-0.1643,0,0,0,0,0,-0.166,-0.1658,-0.1665,-0.166,-0.1665,-0.1671,-0.1673,-0.1679,-0.1679,-0.1681,-0.1676,-0.1671,-0.1669,-0.1667,-0.166,-0.1658,-0.1654,-0.1664,-0.1668,-0.1671,-0.1678,-0.1695,-0.1701,-0.1633,-0.1633,-0.1633,0,0,-0.1654,-0.1656,-0.1654,-0.1659,-0.1664,-0.1678,-0.1673,-0.1679,-0.1694,-0.1675,-0.1689,-0.1681,-0.1671,-0.1677,-0.1676,-0.1669,-0.1685,-0.1672,-0.1675,-0.168,-0.1696,-0.1703,-0.1709,-0.1634,-0.1634,-0.1634,0,0,-0.1644,-0.1646,-0.1645,-0.1658,-0.1669,-0.1679,-0.1683,-0.1691,-0.17,-0.1707,-0.1704,-0.1711,-0.1695,-0.1705,-0.1704,-0.1722,-0.1703,-0.1711,-0.1741,-0.1757,-0.1763,-0.1768,-0.1759,-0.1764,-0.1714,-0.1714,-0.1714,0,-0.1639,-0.1642,-0.1646,-0.1658,-0.1674,-0.1682,-0.1699,-0.1708,-0.1716,-0.1733,-0.1717,-0.1727,-0.1716,-0.1742,-0.1745,-0.1733,-0.1725,-0.1726,-0.1763,-0.1769,-0.1773,-0.1763,-0.1767,-0.1717,-0.1716,-0.1716,-0.1716,0,-0.1634,-0.1645,-0.1648,-0.1671,-0.1689,-0.1701,-0.1725,-0.1744,-0.1752,-0.1766,-0.1789,-0.1777,-0.1787,-0.1783,-0.1764,-0.1795,-0.1771,-0.1766,-0.1755,-0.1783,-0.177,-0.1773,-0.172,-0.1719,-0.1718,-0.1718,0,0,-0.1605,-0.1638,-0.1642,-0.1666,-0.1701,-0.1717,-0.1753,-0.1792,-0.1825,-0.1828,-0.1865,-0.1861,-0.1856,-0.1854,-0.1839,-0.1849,-0.1865,-0.1816,-0.1816,-0.1812,-0.1879,-0.1853,-0.1854,-0.1864,-0.1865,-0.1866,-0.1852,0,-0.1605,-0.1627,-0.1651,-0.1692,-0.1711,-0.1753,-0.179,-0.1831,-0.1855,-0.1892,-0.1898,-0.1914,-0.1882,-0.1882,-0.1891,-0.1874,-0.1877,-0.1868,-0.1848,-0.1847,-0.1826,-0.1859,-0.1655,-0.1625,-0.1855,-0.1855,-0.1856,0,-0.1596,-0.1616,-0.1646,-0.1717,-0.1733,-0.176,-0.1838,-0.1872,-0.1931,-0.1953,-0.1979,-0.1975,-0.199,-0.1953,-0.1951,-0.1942,-0.1911,-0.1895,-0.1895,-0.1861,-0.1829,-0.1636,-0.1622,-0.1861,-0.1861,-0.186,-0.186,0,-0.157,-0.1622,-0.1647,-0.1667,-0.1739,-0.1772,-0.1815,-0.1884,-0.1932,-0.1982,-0.2017,-0.2033,-0.204,-0.2019,-0.1979,-0.1961,-0.1973,-0.1948,-0.1899,-0.1896,-0.1714,-0.1693,-0.195,-0.195,-0.195,-0.195,-0.195,0,-0.1558,-0.1586,-0.1634,-0.1648,-0.1701,-0.1757,-0.1823,-0.1873,-0.1952,-0.2015,-0.2033,-0.2074,-0.2056,-0.2058,-0.2008,-0.1969,-0.1998,-0.1912,-0.1901,-0.1721,-0.1703,-0.1903,-0.1898,-0.195,-0.195,-0.195,-0.195,0,-0.1523,-0.1554,-0.1588,-0.1655,-0.1683,-0.1714,-0.1823,-0.1881,-0.195,-0.203,-0.2046,-0.2108,-0.2114,-0.2093,-0.2065,-0.2009,-0.1972,-0.1948,-0.1731,-0.1695,-0.1868,-0.1865,-0.1886,-0.1885,-0.1884,-0.1884,-0.1883,0,-0.1507,-0.1513,-0.1573,-0.1602,-0.1631,-0.1696,-0.1758,-0.1858,-0.1926,-0.2049,-0.2089,-0.2128,-0.2102,-0.2063,-0.198,-0.1894,-0.1976,-0.1699,-0.1642,-0.188,-0.1866,-0.1864,-0.1862,-0.1399,-0.1395,-0.1391,-0.1388,0,-0.147,-0.1483,-0.1505,-0.1556,-0.1612,-0.169,-0.1778,-0.1826,-0.1953,-0.1984,-0.2022,-0.1991,-0.1975,-0.1798,-0.1742,-0.1672,-0.1697,-0.1627,-0.1929,-0.1469,-0.1426,-0.1411,-0.1424,-0.1356,-0.1359,-0.1362,-0.1363,-0.1365,-0.1435,-0.1433,-0.1455,-0.1503,-0.158,-0.1651,-0.165,-0.173,-0.1762,-0.1772,-0.1867,-0.1756,-0.1727,-0.1516,-0.1433,-0.1388,-0.1506,-0.1419,-0.1427,-0.144,-0.1408,-0.1369,-0.128,-0.1283,-0.1285,-0.1287,-0.1289,0,-0.1377,-0.138,-0.1415,-0.1458,-0.1505,-0.1572,-0.1644,-0.1579,-0.1514,-0.1578,-0.152,-0.1339,-0.1199,-0.122,-0.1059,-0.1021,-0.0968,-0.1011,-0.0928,-0.096,-0.0988,-0.0932,-0.0678,-0.0677,-0.0675,-0.0674,0,0,-0.1344,-0.1328,-0.1334,-0.1357,-0.1399,-0.1367,-0.1357,-0.1245,-0.1216,-0.1125,-0.1086,-0.1138,-0.1155,-0.0927,-0.0858,-0.0752,-0.0852,-0.0706,-0.1187,-0.112,-0.1147,-0.1205,-0.1153,0,0,0,0,0]},{"header":{"parameterUnit":"m.s-1","parameterCategory":2,"la1":30.2991,"la2":30.254,"lo1":-89.0895,"lo2":-89.0444,"dy":0.0017,"dx":0.0017,"nx":28,"ny":28,"refTime":"2025-02-04T03:00:00:Z","depth":"2","parameterNumber":3,"parameterNumberName":"V-component_of_CURRENTS"},"data":[0,0,0,0,0,0,0,0,0,0,0,0,0,0,0,0,0,0,0,0,0,0,0,0,0,0,0,0,0,0,0,0,0,0,0,0,0,0,0,0,0,0,0,0,0,0,0,0,0,0,0,0,0,0,0,0,0,0,-0.0231,-0.0231,0,-0.0244,-0.0244,-0.0244,-0.0227,-0.0226,-0.0226,-0.0225,-0.017,-0.0169,-0.0168,0,0,0,0,0,0,0,0,0,0,0,0,0,-0.019,-0.0191,-0.0231,-0.0231,-0.0231,-0.0244,-0.0244,-0.0244,-0.0227,-0.0226,-0.0226,-0.0225,-0.017,-0.0169,-0.0168,0,0,0,0,0,0,0,0,0,0,0,0,0,-0.0206,-0.0191,-0.0231,-0.0224,-0.0223,-0.0244,-0.0244,-0.0244,-0.0227,-0.0226,-0.0225,-0.0225,-0.017,-0.0169,-0.0168,-0.0179,0,0,-0.0164,-0.0163,0,0,0,0,0,0,0,0,-0.0205,-0.0208,-0.0225,-0.0224,-0.0224,-0.0233,-0.021,-0.0219,-0.0228,-0.0226,-0.0225,-0.0224,-0.0185,-0.0183,-0.0188,-0.0176,-0.0174,-0.0164,-0.0163,-0.0162,-0.0162,0,0,0,0,0,0,0,-0.0204,-0.0207,-0.0236,-0.0225,-0.0224,-0.022,-0.0221,-0.0212,-0.0209,-0.0226,-0.0225,-0.0227,-0.0184,-0.019,-0.0187,-0.0173,-0.0164,-0.0163,-0.0162,-0.0161,-0.0134,-0.0134,0,0,0,0,0,0,-0.0204,-0.0206,-0.0235,-0.0236,-0.0212,-0.0222,-0.0223,-0.0231,-0.0211,-0.0208,-0.0227,-0.0226,-0.0192,-0.0188,-0.0185,-0.0175,-0.0162,-0.0161,-0.016,-0.0134,-0.0134,-0.0134,0,0,0,0,0,0,-0.0203,-0.0207,-0.0235,-0.0221,-0.0224,-0.0223,-0.0232,-0.0232,-0.0231,-0.0213,-0.0208,-0.0227,-0.0192,-0.0186,-0.0176,-0.0173,-0.0161,-0.0159,-0.0134,-0.0134,-0.0134,-0.0168,0,0,0,0,0,0,-0.0202,-0.0206,-0.0213,-0.0221,-0.0225,-0.0252,-0.0233,-0.0233,-0.0234,-0.0232,-0.0211,-0.0205,-0.019,-0.0179,-0.0175,-0.0171,-0.0158,-0.0134,-0.0134,-0.0134,-0.0167,-0.017,-0.0172,0,0,0,0,0,-0.02,-0.0218,-0.0213,-0.0217,-0.0234,-0.0253,-0.0255,-0.025,-0.0235,-0.0244,-0.0226,-0.0206,-0.0176,-0.0178,-0.0174,-0.0169,-0.0134,-0.0134,-0.0134,-0.0166,-0.0169,-0.0172,0,0,0,0,0,0,-0.0208,-0.0218,-0.0213,-0.0233,-0.0242,-0.025,-0.0258,-0.0251,-0.0246,-0.0237,-0.0213,-0.0207,-0.0195,-0.018,-0.0182,-0.0161,-0.0149,-0.0148,-0.0175,-0.0177,-0.018,-0.0177,-0.0157,0,0,0,0,0,-0.0212,-0.0224,-0.0233,-0.0249,-0.0253,-0.0254,-0.0259,-0.0256,-0.0253,-0.0249,-0.0233,-0.0211,-0.0196,-0.0185,-0.0172,-0.0165,-0.0127,-0.0157,-0.0159,-0.0161,-0.0155,-0.0093,-0.0088,-0.0135,-0.0135,-0.0135,0,0,-0.022,-0.0226,-0.0234,-0.0251,-0.0255,-0.0275,-0.0255,-0.0267,-0.0275,-0.0243,-0.0244,-0.0222,-0.0196,-0.0188,-0.018,-0.0173,-0.013,-0.0161,-0.0163,-0.0156,-0.0092,-0.0088,-0.0083,-0.0135,-0.0135,-0.0135,0,0,-0.0248,-0.0247,-0.0269,-0.0278,-0.0287,-0.0289,-0.0291,-0.0296,-0.0288,-0.029,-0.0263,-0.0235,-0.0223,-0.0197,-0.0183,-0.0189,-0.0147,-0.0187,-0.0194,-0.0134,-0.0129,-0.0125,-0.0081,-0.0072,-0.0186,-0.0186,-0.0186,0,-0.0258,-0.0287,-0.0279,-0.0302,-0.0314,-0.0296,-0.0324,-0.0318,-0.0316,-0.0302,-0.0293,-0.0247,-0.0223,-0.0197,-0.0198,-0.0192,-0.0158,-0.0188,-0.0136,-0.0131,-0.0125,-0.0081,-0.0071,-0.0188,-0.0188,-0.0188,-0.0187,0,-0.0305,-0.0325,-0.0339,-0.0361,-0.037,-0.0392,-0.0383,-0.0379,-0.036,-0.0343,-0.031,-0.0275,-0.024,-0.023,-0.0217,-0.0172,-0.0162,-0.0148,-0.0129,-0.0122,-0.0077,-0.0065,-0.019,-0.019,-0.0189,-0.0189,0,0,-0.0341,-0.0369,-0.0374,-0.0393,-0.0403,-0.0419,-0.042,-0.0416,-0.0401,-0.0375,-0.0349,-0.0311,-0.027,-0.0251,-0.0221,-0.017,-0.0105,-0.0147,-0.0143,-0.0103,0.0018,0.0051,0.0067,-0.0083,-0.0081,-0.0079,0.0031,0,-0.0384,-0.044,-0.0437,-0.0484,-0.0513,-0.049,-0.0492,-0.0474,-0.0442,-0.0407,-0.0343,-0.0311,-0.0285,-0.0263,-0.0205,-0.0127,-0.0076,-0.0137,0.0006,0.0011,0.0041,0.0082,0.0024,0.0121,0.0043,0.0045,0.0046,0,-0.0436,-0.0467,-0.0521,-0.0543,-0.0551,-0.0566,-0.0552,-0.055,-0.0485,-0.0454,-0.0394,-0.0341,-0.0261,-0.0241,-0.0095,-0.0136,-0.0062,-0.0002,0.0004,0.0058,0.0066,0.0105,0.0145,0.0066,0.0064,0.0063,0.0061,0,-0.0477,-0.0524,-0.0568,-0.0581,-0.06,-0.0603,-0.0603,-0.0558,-0.0547,-0.0475,-0.0441,-0.0345,-0.0282,-0.0178,-0.0048,-0.0068,0.0118,0.0109,0.0206,0.0208,0.0202,0.0201,0.0216,0.0216,0.0215,0.0215,0.0215,0,-0.0531,-0.0566,-0.0589,-0.0616,-0.0654,-0.0642,-0.0652,-0.063,-0.0579,-0.0544,-0.0463,-0.0399,-0.026,-0.0138,-0.0038,0.0132,0.0134,0.0222,0.0251,0.0186,0.0183,0.0166,0.0158,0.0219,0.0218,0.0218,0.0217,0,-0.0571,-0.059,-0.0644,-0.067,-0.0679,-0.0702,-0.0704,-0.0703,-0.0642,-0.0589,-0.0566,-0.0423,-0.0256,-0.0118,0.0071,0.0157,0.03,0.0353,0.0262,0.028,0.0341,0.033,0.0473,0.0475,0.0477,0.0479,0.048,0,-0.0601,-0.0633,-0.0685,-0.0722,-0.0737,-0.0764,-0.0782,-0.0747,-0.0733,-0.0591,-0.0563,-0.0388,-0.0255,0.0028,0.0181,0.036,0.0373,0.0438,0.0398,0.0359,0.0373,0.0359,0.0346,0.0366,0.0367,0.0367,0.0367,0,-0.0652,-0.0664,-0.0705,-0.0784,-0.0823,-0.0859,-0.0866,-0.0857,-0.078,-0.0703,-0.0544,-0.0419,-0.0159,0.0036,0.0262,0.0362,0.0402,0.0451,0.0461,0.031,0.0269,0.0278,0.0268,0.037,0.037,0.0369,0.0369,0.0369,-0.0681,-0.072,-0.0776,-0.0853,-0.09,-0.0929,-0.0933,-0.0909,-0.0853,-0.071,-0.0572,-0.0367,-0.0175,0.0131,0.0293,0.0442,0.0441,0.0487,0.0482,0.0478,0.0446,0.0411,0.0531,0.0532,0.0533,0.0533,0.0534,0,-0.0721,-0.0768,-0.0845,-0.0926,-0.0984,-0.099,-0.0978,-0.0943,-0.0858,-0.0715,-0.0567,-0.0329,-0.0111,0.0107,0.0319,0.0459,0.042,0.0509,0.042,0.0417,0.0414,0.0375,0.0444,0.0444,0.0445,0.0445,0,0,-0.0745,-0.0822,-0.0869,-0.0987,-0.1033,-0.106,-0.1037,-0.0949,-0.0836,-0.0678,-0.0529,-0.0375,-0.0097,0.0042,0.0209,0.0338,0.0343,0.035,0.0404,0.0274,0.027,0.0382,0.0317,0,0,0,0,0]}],[{"header":{"parameterUnit":"m.s-1","parameterCategory":2,"la1":30.2991,"la2":30.254,"lo1":-89.0895,"lo2":-89.0444,"dy":0.0017,"dx":0.0017,"nx":28,"ny":28,"refTime":"2025-02-04T03:00:00:Z","depth":"4","parameterNumber":2,"parameterNumberName":"U-component_of_CURRENTS"},"data":[0,0,0,0,0,0,0,0,0,0,0,0,0,0,0,0,0,0,0,0,0,0,0,0,0,0,0,0,0,0,0,0,0,0,0,0,0,0,0,0,0,0,0,0,0,0,0,0,0,0,0,0,0,0,0,0,0,0,-0.0768,-0.0768,0,-0.0829,-0.0829,-0.083,-0.0868,-0.0868,-0.0868,-0.0869,-0.0929,-0.0931,-0.0932,0,0,0,0,0,0,0,0,0,0,0,0,0,-0.068,-0.0681,-0.0768,-0.0769,-0.0769,-0.0829,-0.0829,-0.083,-0.0868,-0.0868,-0.0868,-0.0869,-0.0929,-0.093,-0.0932,0,0,0,0,0,0,0,0,0,0,0,0,0,-0.0726,-0.0682,-0.0767,-0.0797,-0.08,-0.0829,-0.0829,-0.083,-0.0867,-0.0868,-0.0869,-0.0869,-0.0928,-0.093,-0.0932,-0.0933,0,0,-0.0938,-0.0939,0,0,0,0,0,0,0,0,-0.0723,-0.0728,-0.0791,-0.0795,-0.0799,-0.0843,-0.0821,-0.0865,-0.0867,-0.084,-0.0869,-0.0869,-0.0901,-0.0905,-0.0913,-0.0936,-0.0938,-0.0938,-0.0939,-0.094,-0.0941,0,0,0,0,0,0,0,-0.072,-0.0726,-0.079,-0.0792,-0.0797,-0.0806,-0.0813,-0.0829,-0.0865,-0.0842,-0.0846,-0.0855,-0.0903,-0.0911,-0.0915,-0.0939,-0.0938,-0.094,-0.0941,-0.0942,-0.1089,-0.1092,0,0,0,0,0,0,-0.0716,-0.0723,-0.0788,-0.0792,-0.0764,-0.0807,-0.0815,-0.0826,-0.0865,-0.0872,-0.0855,-0.0857,-0.0907,-0.0912,-0.0917,-0.1009,-0.094,-0.0942,-0.0943,-0.1086,-0.109,-0.1093,0,0,0,0,0,0,-0.0714,-0.0721,-0.0786,-0.076,-0.0769,-0.0808,-0.0821,-0.0827,-0.0855,-0.0875,-0.0882,-0.0878,-0.0908,-0.0914,-0.0957,-0.1008,-0.0943,-0.0944,-0.1083,-0.1087,-0.1091,-0.1135,0,0,0,0,0,0,-0.0711,-0.072,-0.0733,-0.076,-0.0771,-0.0815,-0.0821,-0.0828,-0.0859,-0.0863,-0.0896,-0.0902,-0.0909,-0.0954,-0.0959,-0.1009,-0.0946,-0.108,-0.1085,-0.109,-0.113,-0.114,-0.1149,0,0,0,0,0,-0.0708,-0.0721,-0.0733,-0.0742,-0.0786,-0.0816,-0.0822,-0.085,-0.086,-0.0875,-0.0905,-0.0902,-0.0992,-0.0957,-0.0962,-0.1014,-0.1077,-0.1083,-0.1089,-0.1126,-0.1138,-0.1149,0,0,0,0,0,0,-0.0688,-0.0727,-0.0741,-0.0766,-0.0795,-0.0823,-0.084,-0.0859,-0.0893,-0.0906,-0.0919,-0.0926,-0.0998,-0.0996,-0.0958,-0.1078,-0.1041,-0.1049,-0.1068,-0.1079,-0.1089,-0.1101,-0.0948,0,0,0,0,0,-0.069,-0.0714,-0.0748,-0.077,-0.0783,-0.0814,-0.0833,-0.0858,-0.0888,-0.0905,-0.0919,-0.096,-0.1025,-0.1041,-0.1085,-0.1124,-0.111,-0.117,-0.118,-0.1187,-0.1205,-0.1285,-0.1303,-0.1113,-0.1113,-0.1113,0,0,-0.0691,-0.0714,-0.0729,-0.0768,-0.079,-0.0806,-0.0827,-0.0865,-0.0898,-0.0905,-0.0944,-0.0994,-0.1048,-0.1115,-0.1145,-0.1115,-0.1211,-0.1195,-0.1201,-0.1215,-0.1293,-0.1311,-0.1328,-0.1117,-0.1117,-0.1116,0,0,-0.0697,-0.0722,-0.0742,-0.0768,-0.0811,-0.082,-0.0834,-0.0868,-0.0909,-0.0967,-0.0997,-0.1068,-0.113,-0.1177,-0.1217,-0.1301,-0.1272,-0.1326,-0.1366,-0.1443,-0.1458,-0.1473,-0.1369,-0.1374,-0.1315,-0.1315,-0.1315,0,-0.0698,-0.0727,-0.0752,-0.0777,-0.0792,-0.0823,-0.084,-0.0886,-0.0933,-0.0969,-0.0993,-0.1135,-0.1171,-0.1273,-0.132,-0.1323,-0.1309,-0.1311,-0.1453,-0.1468,-0.1482,-0.1373,-0.1378,-0.1318,-0.1318,-0.1317,-0.1317,0,-0.0714,-0.0744,-0.0757,-0.0787,-0.0801,-0.083,-0.0876,-0.0916,-0.0967,-0.1008,-0.1136,-0.1212,-0.1301,-0.1333,-0.1363,-0.1484,-0.1415,-0.1465,-0.1416,-0.1503,-0.1381,-0.1386,-0.1322,-0.1321,-0.132,-0.1319,0,0,-0.0698,-0.0758,-0.0764,-0.0787,-0.0816,-0.0831,-0.0885,-0.094,-0.0984,-0.1086,-0.1159,-0.1319,-0.1375,-0.1427,-0.1477,-0.1543,-0.1597,-0.1554,-0.1557,-0.1432,-0.1649,-0.1525,-0.1516,-0.1693,-0.1697,-0.17,-0.1482,0,-0.0706,-0.0748,-0.0769,-0.0799,-0.0816,-0.0858,-0.09,-0.096,-0.102,-0.1089,-0.1231,-0.1336,-0.1408,-0.1481,-0.1569,-0.1617,-0.1631,-0.1643,-0.1601,-0.1596,-0.1467,-0.1528,-0.1712,-0.1485,-0.1486,-0.1486,-0.1487,0,-0.0705,-0.0739,-0.0769,-0.0823,-0.0835,-0.0852,-0.0906,-0.0959,-0.106,-0.1141,-0.1269,-0.1351,-0.1491,-0.1554,-0.1667,-0.168,-0.168,-0.1687,-0.1681,-0.1569,-0.1488,-0.1412,-0.1494,-0.1493,-0.1493,-0.1492,-0.1492,0,-0.0667,-0.0732,-0.0754,-0.0774,-0.0834,-0.0871,-0.0903,-0.0971,-0.1026,-0.1173,-0.1202,-0.1392,-0.1481,-0.1589,-0.1626,-0.1677,-0.1673,-0.1732,-0.1576,-0.1558,-0.1707,-0.1696,-0.1797,-0.1797,-0.1798,-0.1798,-0.1799,0,-0.065,-0.0678,-0.0753,-0.0772,-0.0809,-0.0862,-0.0903,-0.0979,-0.1072,-0.1101,-0.1238,-0.1289,-0.1523,-0.1537,-0.1591,-0.1562,-0.1647,-0.158,-0.1541,-0.171,-0.1704,-0.17,-0.1692,-0.179,-0.1792,-0.1793,-0.1795,0,-0.0603,-0.0651,-0.0691,-0.077,-0.079,-0.0821,-0.0893,-0.0927,-0.1017,-0.1051,-0.1111,-0.124,-0.1296,-0.1363,-0.1472,-0.1472,-0.1476,-0.1423,-0.1452,-0.1417,-0.1291,-0.1287,-0.1255,-0.125,-0.1245,-0.1242,-0.1239,0,-0.0585,-0.0602,-0.0673,-0.0688,-0.0727,-0.0781,-0.0807,-0.0916,-0.0929,-0.0992,-0.0988,-0.1062,-0.1132,-0.1106,-0.1251,-0.1256,-0.1285,-0.1209,-0.1421,-0.1293,-0.1258,-0.1261,-0.1264,-0.1232,-0.1231,-0.123,-0.1229,0,-0.0549,-0.0578,-0.0615,-0.0642,-0.0668,-0.069,-0.0727,-0.0739,-0.0828,-0.0879,-0.089,-0.0937,-0.0938,-0.1063,-0.1034,-0.1069,-0.1256,-0.1166,-0.1178,-0.1377,-0.1265,-0.1235,-0.1242,-0.1213,-0.1216,-0.1217,-0.1218,0,-0.0525,-0.0536,-0.0574,-0.0591,-0.0609,-0.0599,-0.0635,-0.0652,-0.0691,-0.0757,-0.0758,-0.0819,-0.0921,-0.0952,-0.094,-0.0957,-0.1018,-0.1033,-0.1055,-0.1072,-0.1136,-0.0974,-0.0801,0,0,0,0,0,-0.0497,-0.0498,-0.0516,-0.0524,-0.0536,-0.0539,-0.0571,-0.0609,-0.0656,-0.0643,-0.0715,-0.0724,-0.078,-0.083,-0.0829,-0.0882,-0.1013,-0.0875,-0.1039,-0.113,-0.1148,-0.1254,0,0,0,0,0,0,-0.0467,-0.049,-0.0498,-0.0455,-0.0446,-0.0443,-0.0467,-0.0507,-0.0509,-0.0575,-0.062,-0.0668,-0.0742,-0.0771,-0.081,-0.0821,-0.091,-0.0924,-0.0923,-0.112,-0.1136,-0.115,-0.1265,0,0,0,0,0]},{"header":{"parameterUnit":"m.s-1","parameterCategory":2,"la1":30.2991,"la2":30.254,"lo1":-89.0895,"lo2":-89.0444,"dy":0.0017,"dx":0.0017,"nx":28,"ny":28,"refTime":"2025-02-04T03:00:00:Z","depth":"4","parameterNumber":3,"parameterNumberName":"V-component_of_CURRENTS"},"data":[0,0,0,0,0,0,0,0,0,0,0,0,0,0,0,0,0,0,0,0,0,0,0,0,0,0,0,0,0,0,0,0,0,0,0,0,0,0,0,0,0,0,0,0,0,0,0,0,0,0,0,0,0,0,0,0,0,0,-0.034,-0.034,0,-0.0335,-0.0335,-0.0335,-0.0319,-0.0319,-0.0319,-0.0318,-0.0275,-0.0275,-0.0274,0,0,0,0,0,0,0,0,0,0,0,0,0,-0.0324,-0.0325,-0.034,-0.034,-0.034,-0.0335,-0.0335,-0.0335,-0.032,-0.0319,-0.0318,-0.0318,-0.0276,-0.0275,-0.0274,0,0,0,0,0,0,0,0,0,0,0,0,0,-0.0327,-0.0325,-0.034,-0.033,-0.0329,-0.0335,-0.0335,-0.0335,-0.032,-0.0319,-0.0318,-0.0318,-0.0276,-0.0275,-0.0274,-0.0281,0,0,-0.0271,-0.027,0,0,0,0,0,0,0,0,-0.0327,-0.0328,-0.0332,-0.0331,-0.033,-0.0326,-0.0314,-0.0315,-0.032,-0.0325,-0.0318,-0.0317,-0.0289,-0.0287,-0.0289,-0.0279,-0.0277,-0.0271,-0.027,-0.0269,-0.0269,0,0,0,0,0,0,0,-0.0327,-0.0328,-0.0339,-0.0332,-0.0331,-0.0322,-0.0322,-0.0314,-0.0311,-0.0324,-0.0323,-0.0321,-0.0288,-0.029,-0.0288,-0.0276,-0.0271,-0.027,-0.0269,-0.0269,-0.0278,-0.0278,0,0,0,0,0,0,-0.0327,-0.0328,-0.0339,-0.0339,-0.0326,-0.0323,-0.0323,-0.0329,-0.0312,-0.0308,-0.0321,-0.032,-0.0293,-0.0289,-0.0286,-0.0317,-0.0269,-0.0268,-0.0268,-0.0277,-0.0278,-0.0279,0,0,0,0,0,0,-0.0327,-0.0328,-0.034,-0.0332,-0.0333,-0.0324,-0.0331,-0.0329,-0.0333,-0.0309,-0.0305,-0.0327,-0.0292,-0.0288,-0.0288,-0.0314,-0.0268,-0.0267,-0.0276,-0.0277,-0.0278,-0.0363,0,0,0,0,0,0,-0.0327,-0.0329,-0.0336,-0.0332,-0.0333,-0.0347,-0.0331,-0.033,-0.0332,-0.0331,-0.0313,-0.0308,-0.0291,-0.0289,-0.0287,-0.0312,-0.0266,-0.0274,-0.0276,-0.0278,-0.0359,-0.0367,-0.0374,0,0,0,0,0,-0.0326,-0.0338,-0.0336,-0.0337,-0.0342,-0.0348,-0.0348,-0.034,-0.0333,-0.034,-0.0331,-0.0309,-0.0298,-0.029,-0.0286,-0.0311,-0.0274,-0.0276,-0.0278,-0.0356,-0.0365,-0.0374,0,0,0,0,0,0,-0.0333,-0.0338,-0.0335,-0.0348,-0.0349,-0.0345,-0.0349,-0.0346,-0.0345,-0.0343,-0.0321,-0.0316,-0.0325,-0.0305,-0.0296,-0.0317,-0.0282,-0.0283,-0.0343,-0.0351,-0.0359,-0.035,-0.0265,0,0,0,0,0,-0.0338,-0.0352,-0.035,-0.0361,-0.0362,-0.0358,-0.036,-0.0356,-0.0353,-0.0352,-0.0346,-0.0335,-0.0332,-0.033,-0.0321,-0.0334,-0.029,-0.0346,-0.0354,-0.036,-0.035,-0.0285,-0.0285,-0.0285,-0.0285,-0.0285,0,0,-0.0346,-0.0348,-0.0357,-0.0364,-0.0363,-0.0377,-0.0358,-0.0364,-0.0386,-0.0347,-0.0375,-0.036,-0.0339,-0.0356,-0.0358,-0.0342,-0.0347,-0.0363,-0.0369,-0.0355,-0.0287,-0.0287,-0.0286,-0.0286,-0.0286,-0.0286,0,0,-0.0363,-0.0367,-0.0383,-0.039,-0.0393,-0.0392,-0.0396,-0.0401,-0.0412,-0.0433,-0.0413,-0.0414,-0.0413,-0.0407,-0.0402,-0.0442,-0.0386,-0.0441,-0.0475,-0.0413,-0.0412,-0.041,-0.0397,-0.0393,-0.0447,-0.0447,-0.0448,0,-0.037,-0.0391,-0.0387,-0.0404,-0.0417,-0.0402,-0.0425,-0.0437,-0.0446,-0.0464,-0.0451,-0.0454,-0.0439,-0.0454,-0.0467,-0.0461,-0.0419,-0.0447,-0.0422,-0.0419,-0.0415,-0.0401,-0.0396,-0.0452,-0.0451,-0.0451,-0.045,0,-0.0397,-0.0419,-0.0428,-0.0449,-0.0462,-0.0478,-0.0491,-0.0514,-0.0524,-0.0534,-0.0556,-0.0534,-0.0532,-0.0535,-0.0512,-0.0497,-0.0476,-0.0437,-0.0398,-0.042,-0.0405,-0.0398,-0.0458,-0.0456,-0.0455,-0.0454,0,0,-0.0398,-0.0441,-0.0445,-0.0469,-0.049,-0.0503,-0.0547,-0.0581,-0.0607,-0.0619,-0.0651,-0.0645,-0.0623,-0.0613,-0.0586,-0.0535,-0.0499,-0.0475,-0.047,-0.0462,-0.0382,-0.0325,-0.0312,-0.0438,-0.0436,-0.0434,-0.0395,0,-0.0419,-0.0464,-0.0483,-0.0532,-0.0556,-0.0576,-0.0616,-0.0647,-0.0666,-0.0694,-0.0684,-0.0695,-0.0657,-0.0652,-0.0598,-0.0513,-0.0475,-0.0514,-0.036,-0.0357,-0.0301,-0.0299,-0.0429,-0.039,-0.0388,-0.0387,-0.0386,0,-0.0437,-0.0467,-0.0521,-0.0582,-0.0594,-0.0626,-0.0682,-0.0716,-0.0753,-0.077,-0.0774,-0.0756,-0.0724,-0.0669,-0.0543,-0.056,-0.0477,-0.0409,-0.0405,-0.0307,-0.0284,-0.035,-0.0372,-0.0373,-0.0374,-0.0375,-0.0376,0,-0.0433,-0.0495,-0.0542,-0.0562,-0.0624,-0.0664,-0.0697,-0.0742,-0.0774,-0.081,-0.0816,-0.0788,-0.0758,-0.0646,-0.0521,-0.0518,-0.0361,-0.0344,-0.0231,-0.0229,-0.0256,-0.0257,-0.0242,-0.0242,-0.0242,-0.0243,-0.0243,0,-0.0447,-0.0485,-0.0548,-0.0573,-0.0634,-0.0675,-0.0735,-0.0771,-0.0811,-0.0827,-0.084,-0.0818,-0.0732,-0.0643,-0.0532,-0.0357,-0.0371,-0.0228,-0.0197,-0.0301,-0.0307,-0.0253,-0.0255,-0.0241,-0.0241,-0.0242,-0.0242,0,-0.0439,-0.0478,-0.0535,-0.0609,-0.0636,-0.0679,-0.0757,-0.0791,-0.0824,-0.0839,-0.0849,-0.083,-0.0705,-0.0618,-0.0446,-0.036,-0.0214,-0.0152,-0.0305,-0.0285,-0.0134,-0.0141,-0.0032,-0.0029,-0.0027,-0.0025,-0.0024,0,-0.0442,-0.0469,-0.0552,-0.059,-0.0629,-0.0697,-0.0741,-0.0797,-0.0817,-0.0817,-0.0807,-0.0737,-0.0696,-0.0447,-0.0347,-0.0173,-0.013,-0.0093,-0.008,-0.0123,-0.0104,-0.0115,-0.0125,-0.002,-0.0019,-0.0019,-0.0018,0,-0.0444,-0.0474,-0.0521,-0.0593,-0.0649,-0.0708,-0.0761,-0.077,-0.0803,-0.0824,-0.0746,-0.0658,-0.0526,-0.0394,-0.027,-0.0134,-0.0138,-0.0068,-0.0072,-0.006,-0.0107,-0.0093,-0.0105,-0.001,-0.0011,-0.0012,-0.0012,0,-0.0444,-0.0476,-0.0535,-0.0598,-0.0663,-0.0702,-0.0733,-0.0735,-0.0752,-0.0734,-0.0693,-0.0589,-0.0546,-0.0369,-0.0237,-0.012,-0.008,-0.0049,-0.0054,-0.0061,-0.0071,-0.0136,-0.0009,0,0,0,0,0,-0.0438,-0.0477,-0.0539,-0.0608,-0.0666,-0.0702,-0.0741,-0.076,-0.0763,-0.0692,-0.0695,-0.0565,-0.0382,-0.0323,-0.0187,-0.0193,-0.0071,-0.003,-0.0041,0.0034,0.0025,0.0026,0,0,0,0,0,0,-0.0438,-0.0494,-0.0532,-0.0597,-0.0642,-0.0702,-0.0724,-0.0726,-0.0683,-0.0668,-0.0572,-0.0526,-0.0356,-0.0456,-0.0184,-0.0152,-0.0137,0.0046,0.005,0.004,0.0031,0.0024,0.0022,0,0,0,0,0]}]]